Weather History for McCall, ID

Change the Weather History Date:

Wednesday, September 11, 2013

  Actual Average Record
Temperature  
Mean Temperature 66 °F 52 °F  
Max Temperature 86 °F 69 °F 86 °F (1953)
Min Temperature 45 °F 35 °F 24 °F (1994)
Degree Days  
Heating Degree Days 0 13  
Month to date heating degree days 34 121  
Since 1 July heating degree days 81 449  
Cooling Degree Days 1 0  
Month to date cooling degree days 4 0  
Year to date cooling degree days 184 25  
Growing Degree Days 16 (Base 50)    
Moisture  
Dew Point 37 °F    
Average Humidity 46    
Maximum Humidity 76    
Minimum Humidity 15    
Precipitation  
Precipitation 0.00 in 0.02 in 0.82 in (1985)
Month to date precipitation 0.31 0.30  
Year to date precipitation 11.88 13.34  
Sea Level Pressure  
Sea Level Pressure 30.02 in    
Wind  
Wind Speed 4 mph (NNW)    
Max Wind Speed 15 mph    
Max Gust Speed 20 mph    
Visibility 10 miles    
Events      
T = Trace of Precipitation, MM = Missing Value Source: NWS Daily Summary

Daily Weather History Graph

Daily Weather History Graph

Search for Another Location

Airport:

Trip Planner

Search our weather history database for the weather conditions in past years. The results will help you decide how hot, cold, wet, or windy it might be!

Date:

Astronomy

Sep. 11, 2013 Rise Set
Actual Time 7:18 AM MDT 8:02 PM MDT
Civil Twilight 6:49 AM MDT 8:31 PM MDT
Nautical Twilight 6:13 AM MDT 9:06 PM MDT
Astronomical Twilight 5:37 AM MDT 9:43 PM MDT
Moon 2:08 PM MDT (9/11) 11:45 PM MDT (9/11)
Length of Visible Light 13h 42m
Length of Day
12h 43m
Waxing Crescent, 39% of the Moon is Illuminated
Sep 11
Waxing Crescent
Sep 12
First Quarter
Sep 19
Full
Sep 26
Last Quarter
Oct 4
New

Hourly Weather History & Observations

Time (MDT) Temp. Dew Point Humidity Pressure Visibility Wind Dir Wind Speed Gust Speed Precip Events Conditions
12:51 AM 55.0 °F 42.1 °F 62% 30.01 in 10.0 mi Calm Calm - N/A   Clear
1:51 AM 53.1 °F 42.1 °F 66% 30.02 in 10.0 mi Calm Calm - N/A   Clear
2:51 AM 48.9 °F 39.0 °F 69% 30.03 in 10.0 mi Calm Calm - N/A   Clear
3:51 AM 48.0 °F 39.0 °F 71% 30.03 in 10.0 mi Calm Calm - N/A   Clear
4:51 AM 46.9 °F 37.9 °F 71% 30.04 in 10.0 mi NE 3.5 mph - N/A   Clear
5:51 AM 46.0 °F 37.0 °F 71% 30.05 in 10.0 mi Calm Calm - N/A   Clear
6:51 AM 46.0 °F 37.9 °F 73% 30.06 in 10.0 mi Calm Calm - N/A   Clear
7:51 AM 45.0 °F 37.9 °F 76% 30.08 in 10.0 mi Calm Calm - N/A   Clear
8:51 AM 51.1 °F 42.1 °F 71% 30.08 in 10.0 mi Calm Calm - N/A   Clear
9:51 AM 57.9 °F 42.1 °F 56% 30.07 in 10.0 mi SSW 3.5 mph - N/A   Clear
10:51 AM 64.9 °F 43.0 °F 45% 30.06 in 10.0 mi Variable 3.5 mph - N/A   Clear
11:51 AM 72.0 °F 43.0 °F 35% 30.06 in 10.0 mi SW 3.5 mph - N/A   Clear
12:51 PM 78.1 °F 37.9 °F 24% 30.03 in 10.0 mi Variable 3.5 mph - N/A   Clear
1:51 PM 82.0 °F 32.0 °F 16% 30.02 in 10.0 mi NNW 6.9 mph - N/A   Clear
2:51 PM 82.9 °F 30.0 °F 15% 30.00 in 10.0 mi Variable 4.6 mph - N/A   Clear
3:51 PM 84.9 °F 34.0 °F 16% 29.99 in 10.0 mi North 9.2 mph - N/A   Clear
4:51 PM 86.0 °F 33.1 °F 15% 29.97 in 10.0 mi NNW 12.7 mph - N/A   Clear
5:51 PM 84.9 °F 35.1 °F 17% 29.97 in 10.0 mi NNW 9.2 mph - N/A   Clear
6:51 PM 82.9 °F 35.1 °F 18% 29.96 in 10.0 mi NW 9.2 mph - N/A   Clear
7:51 PM 80.1 °F 35.1 °F 20% 29.97 in 10.0 mi North 10.4 mph 16.1 mph N/A   Clear
8:51 PM 73.9 °F 35.1 °F 24% 29.98 in 10.0 mi NNE 4.6 mph - N/A   Clear
9:51 PM 73.9 °F 34.0 °F 23% 29.98 in 10.0 mi North 5.8 mph - N/A   Clear
10:51 PM 66.9 °F 36.0 °F 32% 29.99 in 10.0 mi Calm Calm - N/A   Clear
11:51 PM 66.0 °F 35.1 °F 32% 29.99 in 10.0 mi Calm Calm - N/A   Clear